| time (UTC) | temp F | wind direction | speed knots | gust knots | rain 1hr in | rain 24hr in | rain mn in | humidity % | barometer mb |
| 20260507213011 | 69 | 270 | 7.0 | 7.0 | 0.00 | 0.00 | 0.00 | 37 | 88.8 |
| 20260507212012 | 69 | 292 | 8.7 | 8.7 | 0.00 | 0.00 | 0.00 | 37 | 88.8 |
| 20260507211012 | 69 | 292 | 5.2 | 5.2 | 0.00 | 0.00 | 0.00 | 37 | 88.8 |
| 20260507210012 | 68 | 270 | 8.7 | 8.7 | 0.00 | 0.00 | 0.00 | 38 | 88.8 |
| 20260507205012 | 67 | 315 | 5.2 | 5.2 | 0.00 | 0.00 | 0.00 | 40 | 88.8 |
| 20260507204012 | 66 | 292 | 5.2 | 5.2 | 0.00 | 0.00 | 0.00 | 39 | 88.8 |
| 20260507203013 | 66 | 292 | 4.3 | 4.3 | 0.00 | 0.00 | 0.00 | 38 | 88.8 |
| 20260507202012 | 65 | 270 | 10.4 | 10.4 | 0.00 | 0.00 | 0.00 | 38 | 88.8 |
| 20260507201011 | 65 | 270 | 7.0 | 7.0 | 0.00 | 0.00 | 0.00 | 39 | 88.8 |
| 20260507200013 | 65 | 225 | 10.4 | 10.4 | 0.00 | 0.00 | 0.00 | 35 | 88.8 |
| 20260507195012 | 65 | 270 | 7.0 | 7.0 | 0.00 | 0.00 | 0.00 | 34 | 88.8 |
| 20260507194012 | 64 | 270 | 11.3 | 11.3 | 0.00 | 0.00 | 0.00 | 35 | 88.8 |
| 20260507193012 | 62 | 225 | 4.3 | 4.3 | 0.00 | 0.00 | 0.00 | 35 | 88.8 |
| 20260507192012 | 62 | 225 | 9.6 | 9.6 | 0.00 | 0.00 | 0.00 | 39 | 88.8 |
| 20260507191012 | 62 | 202 | 5.2 | 5.2 | 0.00 | 0.00 | 0.00 | 41 | 88.8 |
| 20260507190012 | 61 | 270 | 5.2 | 5.2 | 0.00 | 0.00 | 0.00 | 42 | 88.8 |
| 20260507185011 | 59 | 270 | 7.0 | 7.0 | 0.00 | 0.00 | 0.00 | 44 | 88.8 |
| 20260507184011 | 59 | 270 | 7.0 | 7.0 | 0.00 | 0.00 | 0.00 | 45 | 88.8 |
| 20260507183012 | 59 | 270 | 13.9 | 13.9 | 0.00 | 0.00 | 0.00 | 41 | 88.8 |
| 20260507182012 | 59 | 225 | 7.0 | 7.0 | 0.00 | 0.00 | 0.00 | 40 | 88.8 |
| 20260507181011 | 60 | 270 | 7.8 | 7.8 | 0.00 | 0.00 | 0.00 | 39 | 88.8 |
| 20260507180011 | 59 | 270 | 7.0 | 7.0 | 0.00 | 0.00 | 0.00 | 37 | 88.8 |
| 20260507175012 | 59 | 248 | 7.0 | 7.0 | 0.00 | 0.00 | 0.00 | 37 | 88.8 |
| 20260507174012 | 59 | 270 | 7.8 | 7.8 | 0.00 | 0.00 | 0.00 | 40 | 88.8 |
| 20260507173011 | 60 | 270 | 9.6 | 9.6 | 0.00 | 0.00 | 0.00 | 35 | 88.8 |
| 20260507172012 | 61 | 270 | 5.2 | 5.2 | 0.00 | 0.00 | 0.00 | 36 | 88.8 |
| 20260507171011 | 61 | 270 | 10.4 | 10.4 | 0.00 | 0.00 | 0.00 | 39 | 88.8 |
| 20260507170011 | 60 | 270 | 7.0 | 7.0 | 0.00 | 0.00 | 0.00 | 30 | 88.8 |
| 20260507165012 | 59 | 270 | 7.8 | 7.8 | 0.00 | 0.00 | 0.00 | 31 | 88.8 |
| 20260507164012 | 58 | 202 | 7.8 | 7.8 | 0.00 | 0.00 | 0.00 | 32 | 88.8 |
| 20260507163011 | 58 | 225 | 9.6 | 9.6 | 0.00 | 0.00 | 0.00 | 32 | 88.8 |
| 20260507161012 | 57 | 248 | 8.7 | 8.7 | 0.00 | 0.00 | 0.00 | 33 | 88.8 |
| 20260507160012 | 56 | 270 | 7.0 | 7.0 | 0.00 | 0.00 | 0.00 | 34 | 88.8 |
| 20260507155012 | 56 | 202 | 9.6 | 9.6 | 0.00 | 0.00 | 0.00 | 35 | 88.8 |
| 20260507154012 | 56 | 225 | 4.3 | 4.3 | 0.00 | 0.00 | 0.00 | 35 | 88.8 |
| 20260507153011 | 54 | 248 | 7.0 | 7.0 | 0.00 | 0.00 | 0.00 | 36 | 88.8 |
| 20260507152012 | 54 | 202 | 9.6 | 9.6 | 0.00 | 0.00 | 0.00 | 36 | 88.8 |
| 20260507151012 | 54 | 202 | 8.7 | 8.7 | 0.00 | 0.00 | 0.00 | 37 | 88.8 |
| 20260507150011 | 53 | 225 | 7.8 | 7.8 | 0.00 | 0.00 | 0.00 | 37 | 88.8 |
| 20260507145012 | 52 | 225 | 7.0 | 7.0 | 0.00 | 0.00 | 0.00 | 39 | 88.8 |
| 20260507144011 | 52 | 225 | 8.7 | 8.7 | 0.00 | 0.00 | 0.00 | 40 | 88.8 |
| 20260507143012 | 50 | 248 | 9.6 | 9.6 | 0.00 | 0.00 | 0.00 | 40 | 88.8 |
| 20260507142012 | 49 | 202 | 5.2 | 5.2 | 0.00 | 0.00 | 0.00 | 42 | 88.8 |
| 20260507141012 | 47 | 225 | 4.3 | 4.3 | 0.00 | 0.00 | 0.00 | 42 | 88.8 |
| 20260507140011 | 46 | 225 | 7.8 | 7.8 | 0.00 | 0.00 | 0.00 | 44 | 88.8 |
| 20260507135011 | 45 | 270 | 7.0 | 7.0 | 0.00 | 0.00 | 0.00 | 44 | 88.8 |
| 20260507134012 | 44 | 270 | 7.8 | 7.8 | 0.00 | 0.00 | 0.00 | 44 | 88.8 |
| 20260507133012 | 44 | 202 | 6.1 | 6.1 | 0.00 | 0.00 | 0.00 | 45 | 88.8 |
| 20260507132011 | 43 | 225 | 6.1 | 6.1 | 0.00 | 0.00 | 0.00 | 48 | 88.8 |
| 20260507131012 | 42 | 202 | 5.2 | 5.2 | 0.00 | 0.00 | 0.00 | 50 | 88.8 |
| 20260507130012 | 40 | 225 | 3.5 | 3.5 | 0.00 | 0.00 | 0.00 | 50 | 88.8 |
| 20260507125011 | 39 | 202 | 6.1 | 6.1 | 0.00 | 0.00 | 0.00 | 51 | 88.8 |
| 20260507124012 | 37 | 225 | 4.3 | 4.3 | 0.00 | 0.00 | 0.00 | 52 | 88.8 |
| 20260507123012 | 36 | 202 | 4.3 | 4.3 | 0.00 | 0.00 | 0.00 | 53 | 88.8 |
| 20260507122012 | 34 | 225 | 3.5 | 3.5 | 0.00 | 0.00 | 0.00 | 56 | 88.8 |
| 20260507121012 | 33 | 248 | 4.3 | 4.3 | 0.00 | 0.00 | 0.00 | 58 | 88.8 |
| 20260507120012 | 32 | 202 | 3.5 | 3.5 | 0.00 | 0.00 | 0.00 | 60 | 88.8 |
| 20260507115012 | 31 | 225 | 2.6 | 2.6 | 0.00 | 0.00 | 0.00 | 61 | 88.8 |
| 20260507114012 | 29 | 225 | 3.5 | 3.5 | 0.00 | 0.00 | 0.00 | 62 | 88.8 |
| 20260507113012 | 28 | 202 | 3.5 | 3.5 | 0.00 | 0.00 | 0.00 | 64 | 88.8 |
| 20260507112012 | 27 | 225 | 4.3 | 4.3 | 0.00 | 0.00 | 0.00 | 66 | 88.8 |
| 20260507111011 | 26 | 202 | 3.5 | 3.5 | 0.00 | 0.00 | 0.00 | 68 | 88.8 |
| 20260507110013 | 26 | 225 | 3.5 | 3.5 | 0.00 | 0.00 | 0.00 | 67 | 88.8 |
| 20260507105012 | 25 | 225 | 2.6 | 2.6 | 0.00 | 0.00 | 0.00 | 67 | 88.8 |
| 20260507104012 | 25 | 202 | 2.6 | 2.6 | 0.00 | 0.00 | 0.00 | 67 | 88.8 |
| 20260507103012 | 26 | 225 | 2.6 | 2.6 | 0.00 | 0.00 | 0.00 | 67 | 88.8 |
| 20260507102011 | 27 | 180 | 2.6 | 2.6 | 0.00 | 0.00 | 0.00 | 66 | 88.8 |
| 20260507101012 | 27 | 180 | 2.6 | 2.6 | 0.00 | 0.00 | 0.00 | 65 | 88.8 |
| 20260507100012 | 27 | 180 | 2.6 | 2.6 | 0.00 | 0.00 | 0.00 | 66 | 88.8 |
| 20260507095012 | 26 | 202 | 3.5 | 3.5 | 0.00 | 0.00 | 0.00 | 62 | 88.8 |
| 20260507094012 | 24 | 225 | 3.5 | 3.5 | 0.00 | 0.00 | 0.00 | 64 | 88.8 |
| 20260507093012 | 24 | 202 | 2.6 | 2.6 | 0.00 | 0.00 | 0.00 | 64 | 88.8 |
| 20260507092012 | 25 | 225 | 2.6 | 2.6 | 0.00 | 0.00 | 0.00 | 64 | 88.8 |
| 20260507091012 | 27 | 202 | 2.6 | 2.6 | 0.00 | 0.00 | 0.00 | 63 | 88.8 |
| 20260507085011 | 28 | 202 | 3.5 | 3.5 | 0.00 | 0.00 | 0.00 | 61 | 88.8 |
| 20260507084012 | 28 | 180 | 3.5 | 3.5 | 0.00 | 0.00 | 0.00 | 61 | 88.8 |
| 20260507083012 | 28 | 202 | 3.5 | 3.5 | 0.00 | 0.00 | 0.00 | 61 | 88.8 |
| 20260507082012 | 28 | 225 | 2.6 | 2.6 | 0.00 | 0.00 | 0.00 | 60 | 88.8 |
| 20260507081011 | 29 | 180 | 3.5 | 3.5 | 0.00 | 0.00 | 0.00 | 60 | 88.8 |
| 20260507080012 | 29 | 202 | 2.6 | 2.6 | 0.00 | 0.00 | 0.00 | 60 | 88.8 |
| 20260507075011 | 29 | 202 | 3.5 | 3.5 | 0.00 | 0.00 | 0.00 | 58 | 88.8 |
| 20260507074011 | 29 | 180 | 3.5 | 3.5 | 0.00 | 0.00 | 0.00 | 57 | 88.8 |
| 20260507073012 | 28 | 180 | 3.5 | 3.5 | 0.00 | 0.00 | 0.00 | 55 | 88.8 |
| 20260507072011 | 29 | 158 | 4.3 | 4.3 | 0.00 | 0.00 | 0.00 | 52 | 88.8 |
| 20260507071012 | 29 | 158 | 4.3 | 4.3 | 0.00 | 0.00 | 0.00 | 51 | 88.8 |
| 20260507070013 | 30 | 180 | 4.3 | 4.3 | 0.00 | 0.00 | 0.00 | 49 | 88.8 |
| 20260507065011 | 30 | 180 | 3.5 | 3.5 | 0.00 | 0.00 | 0.00 | 49 | 88.8 |
| 20260507064011 | 30 | 158 | 4.3 | 4.3 | 0.00 | 0.00 | 0.00 | 48 | 88.8 |
| 20260507063012 | 30 | 180 | 3.5 | 3.5 | 0.00 | 0.00 | 0.00 | 48 | 88.8 |
| 20260507062017 | 29 | 158 | 4.3 | 4.3 | 0.00 | 0.00 | 0.00 | 48 | 88.8 |
| 20260507061011 | 29 | 180 | 4.3 | 4.3 | 0.00 | 0.00 | 0.00 | 45 | 88.8 |
| 20260507060012 | 28 | 180 | 3.5 | 3.5 | 0.00 | 0.00 | 0.00 | 43 | 88.8 |
| 20260507055012 | 28 | 180 | 2.6 | 2.6 | 0.00 | 0.00 | 0.00 | 43 | 88.8 |
| 20260507054011 | 27 | 180 | 3.5 | 3.5 | 0.00 | 0.00 | 0.00 | 43 | 88.8 |
| 20260507053012 | 27 | 180 | 2.6 | 2.6 | 0.00 | 0.00 | 0.00 | 43 | 88.8 |
| 20260507052012 | 27 | 158 | 2.6 | 2.6 | 0.00 | 0.00 | 0.00 | 43 | 88.8 |
| 20260507051011 | 28 | 135 | 1.7 | 1.7 | 0.00 | 0.00 | 0.00 | 43 | 88.8 |
| 20260507050012 | 28 | 180 | 0.0 | 0.0 | 0.00 | 0.00 | 0.00 | 43 | 88.8 |
| 20260507045012 | 28 | 180 | 3.5 | 3.5 | 0.00 | 0.00 | 0.00 | 42 | 88.8 |
| 20260507044011 | 28 | 180 | 2.6 | 2.6 | 0.00 | 0.00 | 0.00 | 44 | 88.8 |
| 20260507043012 | 29 | 158 | 1.7 | 1.7 | 0.00 | 0.00 | 0.00 | 43 | 88.8 |
| 20260507042012 | 30 | 180 | 1.7 | 1.7 | 0.00 | 0.00 | 0.00 | 43 | 88.8 |
| 20260507041011 | 31 | 135 | 2.6 | 2.6 | 0.00 | 0.00 | 0.00 | 43 | 88.8 |
| 20260507040013 | 31 | 158 | 1.7 | 1.7 | 0.00 | 0.00 | 0.00 | 43 | 88.8 |
| 20260507035017 | 31 | 180 | 1.7 | 1.7 | 0.00 | 0.00 | 0.00 | 43 | 88.8 |
| 20260507034011 | 32 | 180 | 1.7 | 1.7 | 0.00 | 0.00 | 0.00 | 43 | 88.8 |
| 20260507033012 | 32 | 180 | 0.0 | 0.0 | 0.00 | 0.00 | 0.00 | 43 | 88.8 |
| 20260507032011 | 33 | 180 | 0.0 | 0.0 | 0.00 | 0.00 | 0.00 | 42 | 88.8 |
| 20260507031011 | 33 | 158 | 0.0 | 0.0 | 0.00 | 0.00 | 0.00 | 42 | 88.8 |
| 20260507030012 | 33 | 112 | 1.7 | 1.7 | 0.00 | 0.00 | 0.00 | 42 | 88.8 |
| 20260507025011 | 34 | 202 | 0.0 | 0.0 | 0.00 | 0.00 | 0.00 | 41 | 88.8 |
| 20260507024012 | 36 | 158 | 0.0 | 0.0 | 0.00 | 0.00 | 0.00 | 41 | 88.8 |
| 20260507023011 | 37 | 135 | 0.0 | 0.0 | 0.00 | 0.00 | 0.00 | 39 | 88.8 |
| 20260507022012 | 41 | 112 | 1.7 | 1.7 | 0.00 | 0.00 | 0.00 | 38 | 88.8 |
| 20260507021012 | 44 | 112 | 2.6 | 2.6 | 0.00 | 0.00 | 0.00 | 36 | 88.8 |
| 20260507020012 | 45 | 112 | 3.5 | 3.5 | 0.00 | 0.00 | 0.00 | 35 | 88.8 |
| 20260507015011 | 47 | 112 | 4.3 | 4.3 | 0.00 | 0.00 | 0.00 | 34 | 88.8 |
| 20260507014012 | 48 | 112 | 6.1 | 6.1 | 0.00 | 0.00 | 0.00 | 33 | 88.8 |
| 20260507012011 | 51 | 112 | 6.1 | 6.1 | 0.00 | 0.00 | 0.00 | 31 | 88.8 |
| 20260507011011 | 52 | 112 | 7.0 | 7.0 | 0.00 | 0.00 | 0.00 | 31 | 88.8 |
| 20260507010012 | 54 | 112 | 7.0 | 7.0 | 0.00 | 0.00 | 0.00 | 29 | 88.8 |
| 20260507005011 | 54 | 112 | 5.2 | 5.2 | 0.00 | 0.00 | 0.00 | 28 | 88.8 |
| 20260507004012 | 54 | 112 | 6.1 | 6.1 | 0.00 | 0.00 | 0.00 | 28 | 88.8 |
| 20260507003012 | 55 | 68 | 6.1 | 6.1 | 0.00 | 0.00 | 0.00 | 26 | 88.8 |
| 20260507002012 | 54 | 158 | 2.6 | 2.6 | 0.00 | 0.00 | 0.00 | 26 | 88.8 |
| 20260507001011 | 53 | 180 | 2.6 | 2.6 | 0.00 | 0.00 | 0.00 | 27 | 88.8 |
| 20260507000012 | 52 | 112 | 5.2 | 5.2 | 0.00 | 0.00 | 0.00 | 26 | 88.8 |
| 20260506235013 | 52 | 158 | 6.1 | 6.1 | 0.00 | 0.00 | 0.00 | 26 | 88.8 |
| 20260506234011 | 51 | 158 | 3.5 | 3.5 | 0.00 | 0.00 | 0.00 | 26 | 88.8 |
| 20260506233012 | 51 | 45 | 6.1 | 6.1 | 0.00 | 0.00 | 0.00 | 27 | 88.8 |
| 20260506232011 | 52 | 158 | 1.7 | 1.7 | 0.00 | 0.00 | 0.00 | 25 | 88.8 |
| 20260506231012 | 52 | 315 | 4.3 | 4.3 | 0.00 | 0.00 | 0.00 | 26 | 88.8 |
| 20260506230012 | 52 | 22 | 7.0 | 7.0 | 0.00 | 0.00 | 0.00 | 24 | 88.8 |
| 20260506225012 | 52 | 225 | 2.6 | 2.6 | 0.00 | 0.00 | 0.00 | 26 | 88.8 |
| 20260506224011 | 52 | 180 | 7.0 | 7.0 | 0.00 | 0.00 | 0.00 | 26 | 88.8 |
| 20260506223012 | 51 | 112 | 7.0 | 7.0 | 0.00 | 0.00 | 0.00 | 27 | 88.8 |
| 20260506222012 | 51 | 68 | 7.0 | 7.0 | 0.00 | 0.00 | 0.00 | 26 | 88.8 |
| 20260506221011 | 51 | 45 | 1.7 | 1.7 | 0.00 | 0.00 | 0.00 | 26 | 88.8 |
| 20260506220012 | 51 | 22 | 4.3 | 4.3 | 0.00 | 0.00 | 0.00 | 27 | 88.8 |
| 20260506215011 | 51 | 90 | 1.7 | 1.7 | 0.00 | 0.00 | 0.00 | 27 | 88.8 |
| 20260506214012 | 51 | 45 | 5.2 | 5.2 | 0.00 | 0.00 | 0.00 | 27 | 88.8 |